Hyderabad, India

4:37 AM IST on February 23, 2017 (GMT +0530)
Hyderabad

Weather History for VOHY - May, 2013

Change the Weather History Date:

Friday, May 31, 2013

  Actual Average Record
Temperature  
Mean Temperature 90 °F -  
Max Temperature 102 °F 90 °F 109 °F (2015)
Min Temperature 79 °F 76 °F 71 °F (2002)
Cooling Degree Days 26    
Growing Degree Days 40 (Base 50)    
Moisture  
Dew Point 65 °F    
Average Humidity 41    
Maximum Humidity 74    
Minimum Humidity 22    
Precipitation  
Precipitation 0.28 in 0.16 in - ()
Sea Level Pressure  
Sea Level Pressure 29.65 in    
Wind  
Wind Speed 5 mph ()    
Max Wind Speed 14 mph    
Max Gust Speed -    
Visibility 3.8 miles    
Events Rain    
Averages and records for this station are not official NWS values.
T = Trace of Precipitation, MM = Missing Value Source: Averaged Metar Reports

Daily Weather History Graph

Daily Weather History Graph

Search for Another Location

Airport or City:

Trip Planner

Search our weather history database for the weather conditions in past years. The results will help you decide how hot, cold, wet, or windy it might be!

Date:

Astronomy

May. 31, 2013 Rise Set
Actual Time 5:40 AM IST 6:46 PM IST
Civil Twilight 5:17 AM IST 7:10 PM IST
Nautical Twilight 4:49 AM IST 7:38 PM IST
Astronomical Twilight 4:20 AM IST 8:07 PM IST
Moon 12:23 AM IST (6/1) 11:46 AM IST (5/31)
Length of Visible Light 13h 53m
Length of Day
13h 05m
Waning Gibbous, 56% of the Moon is Illuminated
May 31
Waning Gibbous
Jun 1
Last Quarter
Jun 8
New
Jun 16
First Quarter
Jun 23
Full

Hourly Weather History & Observations

Time (IST) Temp. Heat Index Dew Point Humidity Pressure Visibility Wind Dir Wind Speed Gust Speed Precip Events Conditions
2:30 AM 84 °F - 75 °F 68% 29.58 in 2 mi Calm Calm - -   Partly Cloudy
5:30 AM 81 °F - 70 °F 62% 29.62 in 2 mi West 6.9 mph - -  
7:10 AM 82.4 °F 84.6 °F 66.2 °F 58% 29.74 in 3.7 mi West 4.6 mph - N/A   Scattered Clouds
8:10 AM 86.0 °F 88.2 °F 66.2 °F 51% 29.77 in 3.7 mi West 6.9 mph - N/A   Unknown
8:30 AM 86 °F - 70 °F 51% 29.62 in 6 mi NW 2.3 mph - -   Scattered Clouds
9:10 AM 89.6 °F 88.1 °F 57.2 °F 33% 29.74 in 3.7 mi West 11.5 mph - N/A   Unknown
10:10 AM 93.2 °F 93.3 °F 60.8 °F 34% 29.74 in 3.7 mi WNW 11.5 mph - N/A   Unknown
11:10 AM 96.8 °F 96.2 °F 59.0 °F 28% 29.74 in 3.7 mi WNW 13.8 mph - N/A   Unknown
11:30 AM 96 °F - 67 °F 30% 29.54 in 6 mi NW 5.8 mph - -   Clear
12:10 PM 100.4 °F 100.2 °F 59.0 °F 25% 29.71 in 5.0 mi West 13.8 mph - N/A   Unknown
1:10 PM 102.2 °F 102.4 °F 59.0 °F 24% 29.68 in 5.0 mi NW 12.7 mph - N/A   Scattered Clouds
2:30 PM 101 °F - 67 °F 24% 29.47 in 6 mi North 5.8 mph - -   Scattered Clouds
3:10 PM 105.8 °F 106.8 °F 59.0 °F 22% 29.65 in 3.7 mi ENE 6.9 mph - N/A   Mostly Cloudy
4:10 PM 102.2 °F 101.4 °F 57.2 °F 22% 29.62 in 3.7 mi East 6.9 mph - N/A   Mostly Cloudy
5:10 PM 100.4 °F 99.7 °F 57.2 °F 24% 29.62 in 3.7 mi Calm Calm - N/A   Partly Cloudy
5:30 PM 98 °F - 70 °F 31% 29.46 in 6 mi Calm Calm - -   Partly Cloudy
6:10 PM 89.6 °F 91.1 °F 64.4 °F 43% 29.65 in 3.7 mi SW 13.8 mph - N/A   Mostly Cloudy
8:30 PM 81 °F - 74 °F 74% 29.59 in 2 mi SE 4.6 mph - - Rain Light Rain
9:10 PM 84.2 °F 85.6 °F 64.4 °F 51% 29.71 in 2.5 mi South 3.5 mph - N/A Rain Light Rain
10:10 PM 86.0 °F 87.3 °F 64.4 °F 48% 29.74 in 2.5 mi Calm Calm - N/A   Haze
11:30 PM 85 °F - 70 °F 51% 29.61 in 2 mi SE 4.6 mph - -   Partly Cloudy